User: anonymous
Location: Caltech
(34.1382°N, 118.1253°W)
Time: 14:12:24
(UTC-07:00)
Language:

FENGYUN 3A - Orbit

View from above orbital plane
View from above orbital plane
View from above satellite
View from above satellite

Ground track
Ground track

The orbit data is extracted from the following two-line orbital elements,

1 32958U 08026A   14250.45942520  .00000073  00000-0  34453-4 0  2970
2 32958 098.5482 306.4929 0009640 341.8332 018.3149 14.19466534325516
Epoch (UTC): 07 September 2014 11:01:34
Eccentricity: 0.0009640
inclination: 98.5482°
perigee height: 820 km
apogee height: 834 km
right ascension of ascending node: 306.4929°
argument of perigee: 341.8332°
revolutions per day: 14.19466534
mean anomaly at epoch: 18.3149°
orbit number at epoch: 32551

The dashed part of the orbit path shows where the satellite is in the earth's shadow,  

DLR